Location: Hopville
(44.8032°N, 123.1329°W)
Time: 16:31:42
(UTC+00:00)

Cosmos 1703 - Pass Details

Date: 24 January 2021
Orbit: 524 x 538 km, 82.5° (Epoch: 28 February)

Event Time Altitude Azimuth Distance (km) Brightness Sun altitude
Exits shadow 14:01:59 22° 334° (NNW) 1,184 4.7 -17.2°
Maximum altitude 14:04:14 53° 265° (W) 658 3.3 -16.9°
Drops below altitude 10° 14:08:02 10° 189° (S) 1,773 5.9 -16.2°
Sets 14:10:12 0° 184° (S) 2,660 6.9 -15.8°
